User: anonymous   Login
Location: Iesi
(43.5167°N, 13.2333°E)
Time: 11:14:44
(UTC+00:00)
Language:

Cosmos 2369 - Orbit

View from above orbital plane
View from above orbital plane
View from above satellite
View from above satellite

Ground track
Ground track

The orbit data is extracted from the following two-line orbital elements,

1 26069U 00006A   20293.78549624 +.00000008 +00000-0 +29688-4 0  9995
2 26069 070.9936 322.0059 0011881 193.2199 166.8613 14.13414402068585
Epoch (UTC): 19 October 2020 18:51:06
Eccentricity: 0.0011881
inclination: 70.9936°
perigee height: 839 km
apogee height: 856 km
right ascension of ascending node: 322.0059°
argument of perigee: 193.2199°
revolutions per day: 14.13414402
mean anomaly at epoch: 166.8613°
orbit number at epoch: 6858

The dashed part of the orbit path shows where the satellite is in the earth's shadow,  

DLR